Tehachapi, CA

4:43 AM PST on November 15, 2019 (GMT -0800)
Tehachapi Municipal

Weather History for KTSP - October, 2019

Change the Weather History Date:

Sunday, October 20, 2019

  Actual Average Record
Temperature  
Mean Temperature 50 °F -  
Max Temperature 62 °F 69 °F 77 °F (2011)
Min Temperature 39 °F 39 °F 32 °F (2013)
Degree Days  
Heating Degree Days 14    
Moisture  
Dew Point 41 °F    
Average Humidity 69    
Maximum Humidity 81    
Minimum Humidity 48    
Precipitation  
Precipitation 0.00 in - - ()
Sea Level Pressure  
Sea Level Pressure 30.13 in    
Wind  
Wind Speed 9 mph ()    
Max Wind Speed 17 mph    
Max Gust Speed 22 mph    
Visibility 9.2 miles    
Events      
Averages and records for this station are not official NWS values.
T = Trace of Precipitation, MM = Missing Value Source: Averaged Metar Reports

Daily Weather History Graph

Daily Weather History Graph

Search for Another Location

Airport or City:

Astronomy

Oct. 20, 2019 Rise Set
Actual Time 7:03 AM PDT 6:12 PM PDT
Civil Twilight 6:38 AM PDT 6:38 PM PDT
Nautical Twilight 6:08 AM PDT 7:07 PM PDT
Astronomical Twilight 5:39 AM PDT 7:37 PM PDT
Moon 11:35 PM PDT (10/20) 1:27 PM PDT (10/20)
Length of Visible Light 12h 00m
Length of Day
11h 08m
Waning Gibbous, 58% of the Moon is Illuminated
Oct 20
Waning Gibbous
Oct 21
Last Quarter
Oct 27
New
Nov 4
First Quarter
Nov 12
Full

Hourly Weather History & Observations

Time (PDT) Temp. Windchill Dew Point Humidity Pressure Visibility Wind Dir Wind Speed Gust Speed Precip Events Conditions
12:15 AM 46.4 °F 41.5 °F 39.2 °F 76% 30.06 in 10.0 mi West 10.4 mph - N/A   Clear
12:35 AM 46.4 °F 41.5 °F 39.2 °F 76% 30.06 in 10.0 mi West 10.4 mph - N/A   Clear
12:55 AM 44.6 °F 40.7 °F 37.4 °F 76% 30.06 in 10.0 mi West 6.9 mph - N/A   Clear
1:15 AM 44.6 °F 40.2 °F 37.4 °F 76% 30.05 in 10.0 mi West 8.1 mph - N/A   Clear
1:35 AM 46.4 °F 41.5 °F 37.4 °F 71% 30.05 in 10.0 mi West 10.4 mph - N/A   Clear
1:55 AM 44.6 °F 38.8 °F 37.4 °F 76% 30.06 in 9.0 mi West 11.5 mph - N/A   Clear
2:15 AM 46.4 °F 41.1 °F 39.2 °F 76% 30.06 in 10.0 mi WNW 11.5 mph - N/A   Scattered Clouds
2:35 AM 46.4 °F 39.5 °F 39.2 °F 76% 30.06 in 10.0 mi West 17.3 mph - N/A   Partly Cloudy
2:55 AM 46.4 °F 40.4 °F 39.2 °F 76% 30.06 in 10.0 mi West 13.8 mph - N/A   Mostly Cloudy
3:15 AM 48.2 °F - 39.2 °F 71% 30.06 in 10.0 mi WNW 12.7 mph - N/A   Overcast
3:35 AM 48.2 °F - 39.2 °F 71% 30.06 in 10.0 mi WNW 12.7 mph - N/A   Overcast
3:55 AM 48.2 °F - 39.2 °F 71% 30.06 in 10.0 mi WNW 11.5 mph - N/A   Overcast
4:15 AM 48.2 °F - 39.2 °F 71% 30.06 in 10.0 mi WNW 10.4 mph - N/A   Overcast
4:35 AM 48.2 °F - 39.2 °F 71% 30.06 in 10.0 mi WNW 12.7 mph - N/A   Overcast
4:55 AM 48.2 °F - 39.2 °F 71% 30.07 in 10.0 mi West 10.4 mph - N/A   Overcast
5:15 AM 48.2 °F - 39.2 °F 71% 30.07 in 10.0 mi West 9.2 mph - N/A   Overcast
5:35 AM 48.2 °F - 39.2 °F 71% 30.08 in 10.0 mi West 9.2 mph - N/A   Overcast
5:55 AM 48.2 °F - 41.0 °F 76% 30.08 in 10.0 mi West 9.2 mph - N/A   Overcast
6:15 AM 48.2 °F - 41.0 °F 76% 30.09 in 10.0 mi WSW 10.4 mph - N/A   Overcast
6:35 AM 48.2 °F - 39.2 °F 71% 30.09 in 10.0 mi West 8.1 mph - N/A   Overcast
6:55 AM 48.2 °F - 39.2 °F 71% 30.10 in 10.0 mi West 10.4 mph - N/A   Overcast
7:15 AM 48.2 °F - 39.2 °F 71% 30.11 in 8.0 mi West 10.4 mph - N/A   Overcast
7:35 AM 48.2 °F - 41.0 °F 76% 30.12 in 8.0 mi West 10.4 mph - N/A   Overcast
7:55 AM 48.2 °F - 41.0 °F 76% 30.13 in 8.0 mi West 8.1 mph - N/A   Overcast
8:15 AM 48.2 °F - 41.0 °F 76% 30.13 in 8.0 mi WNW 8.1 mph - N/A   Overcast
8:35 AM 48.2 °F - 39.2 °F 71% 30.14 in 8.0 mi West 8.1 mph - N/A   Overcast
8:55 AM 50.0 °F - 41.0 °F 71% 30.15 in 8.0 mi WNW 5.8 mph - N/A   Overcast
9:15 AM 50.0 °F - 41.0 °F 71% 30.17 in 8.0 mi NW 5.8 mph - N/A   Overcast
9:35 AM 51.8 °F - 44.6 °F 76% 30.18 in 8.0 mi West 8.1 mph - N/A   Overcast
9:55 AM 51.8 °F - 44.6 °F 76% 30.18 in 9.0 mi NW 9.2 mph - N/A   Overcast
10:15 AM 53.6 °F - 44.6 °F 72% 30.18 in 5.0 mi NW 8.1 mph - N/A   Haze
10:35 AM 55.4 °F - 44.6 °F 67% 30.17 in 9.0 mi NW 9.2 mph - N/A   Partly Cloudy
10:55 AM 57.2 °F - 44.6 °F 63% 30.16 in 10.0 mi NW 8.1 mph - N/A   Partly Cloudy
11:15 AM 59.0 °F - 44.6 °F 59% 30.15 in 8.0 mi NW 12.7 mph - N/A   Clear
11:35 AM 59.0 °F - 44.6 °F 59% 30.15 in 9.0 mi WNW 11.5 mph 16.1 mph N/A   Clear
11:55 AM 60.8 °F - 42.8 °F 52% 30.14 in 9.0 mi WNW 13.8 mph 18.4 mph N/A   Clear
12:15 PM 62.6 °F - 42.8 °F 48% 30.15 in 8.0 mi NW 15.0 mph - N/A   Clear
12:35 PM 62.6 °F - 44.6 °F 52% 30.15 in 8.0 mi WNW 12.7 mph 17.3 mph N/A   Clear
12:55 PM 62.6 °F - 42.8 °F 48% 30.14 in 7.0 mi WNW 12.7 mph 20.7 mph N/A   Clear
1:15 PM 62.6 °F - 44.6 °F 52% 30.15 in 8.0 mi NW 17.3 mph 20.7 mph N/A   Clear
1:35 PM 62.6 °F - 44.6 °F 52% 30.14 in 9.0 mi NW 15.0 mph 21.9 mph N/A   Clear
1:55 PM 62.6 °F - 46.4 °F 55% 30.14 in 5.0 mi NW 12.7 mph - N/A   Haze
2:15 PM 62.6 °F - 46.4 °F 55% 30.13 in 8.0 mi WNW 9.2 mph 19.6 mph N/A   Clear
2:35 PM 62.6 °F - 46.4 °F 55% 30.13 in 7.0 mi NW 11.5 mph 19.6 mph N/A   Clear
2:55 PM 62.6 °F - 46.4 °F 55% 30.12 in 5.0 mi NW 12.7 mph 17.3 mph N/A   Haze
3:15 PM 62.6 °F - 46.4 °F 55% 30.12 in 8.0 mi NW 13.8 mph 18.4 mph N/A   Clear
3:35 PM 60.8 °F - 46.4 °F 59% 30.12 in 9.0 mi NW 16.1 mph - N/A   Clear
3:55 PM 60.8 °F - 46.4 °F 59% 30.13 in 10.0 mi NW 12.7 mph - N/A   Clear
4:15 PM 59.0 °F - 44.6 °F 59% 30.13 in 10.0 mi NW 15.0 mph 19.6 mph N/A   Clear
4:35 PM 59.0 °F - 42.8 °F 55% 30.13 in 8.0 mi NW 12.7 mph 18.4 mph N/A   Clear
4:55 PM 57.2 °F - 41.0 °F 55% 30.12 in 9.0 mi NW 12.7 mph - N/A   Clear
5:15 PM 57.2 °F - 41.0 °F 55% 30.12 in 10.0 mi NW 13.8 mph - N/A   Clear
5:35 PM 55.4 °F - 41.0 °F 58% 30.13 in 10.0 mi WNW 12.7 mph - N/A   Clear
5:55 PM 55.4 °F - 41.0 °F 58% 30.13 in 10.0 mi WNW 8.1 mph - N/A   Clear
6:15 PM 53.6 °F - 41.0 °F 62% 30.13 in 10.0 mi NW 8.1 mph - N/A   Clear
6:35 PM 51.8 °F - 41.0 °F 67% 30.14 in 10.0 mi WNW 9.2 mph - N/A   Clear
6:55 PM 50.0 °F - 41.0 °F 71% 30.15 in 10.0 mi WNW 6.9 mph - N/A   Clear
7:15 PM 50.0 °F - 41.0 °F 71% 30.15 in 10.0 mi WNW 8.1 mph - N/A   Clear
7:35 PM 48.2 °F - 41.0 °F 76% 30.16 in 10.0 mi NW 5.8 mph - N/A   Clear
7:55 PM 46.4 °F 45.2 °F 41.0 °F 81% 30.17 in 10.0 mi WNW 3.5 mph - N/A   Clear
8:15 PM 48.2 °F - 41.0 °F 76% 30.17 in 10.0 mi West 3.5 mph - N/A   Clear
8:35 PM 46.4 °F 44.3 °F 41.0 °F 81% 30.17 in 10.0 mi West 4.6 mph - N/A   Clear
8:55 PM 46.4 °F 45.2 °F 39.2 °F 76% 30.17 in 10.0 mi NNW 3.5 mph - N/A   Clear
9:15 PM 46.4 °F 45.2 °F 39.2 °F 76% 30.18 in 10.0 mi NW 3.5 mph - N/A   Clear
9:35 PM 46.4 °F - 39.2 °F 76% 30.17 in 10.0 mi Calm Calm - N/A   Clear
9:55 PM 44.6 °F - 39.2 °F 81% 30.18 in 10.0 mi Calm Calm - N/A   Clear
10:15 PM 41.0 °F 38.0 °F 35.6 °F 81% 30.19 in 10.0 mi ESE 4.6 mph - N/A   Clear
10:35 PM 41.0 °F 38.0 °F 35.6 °F 81% 30.19 in 10.0 mi East 4.6 mph - N/A   Clear
10:55 PM 41.0 °F - 35.6 °F 81% 30.19 in 10.0 mi Calm Calm - N/A   Clear
11:15 PM 41.0 °F 39.0 °F 35.6 °F 81% 30.19 in 10.0 mi East 3.5 mph - N/A   Clear
11:35 PM 39.2 °F - 32.0 °F 75% 30.19 in 10.0 mi Calm Calm - N/A   Clear
11:55 PM 39.2 °F 35.0 °F 33.8 °F 81% 30.19 in 10.0 mi ESE 5.8 mph - N/A   Clear